Showing default

TDS 1, 40076

Orbit data source: Space-Track

TDS 1, 40076 is a payload satellite owned by UK TSB (UK) in SSO that was launched on Tue, 08 Jul 2014 UTC via a SOYUZ-2-1B launch vehicle from the Tyuratam Missile And Space Complex (TTMTR). Payload-class satellites include a variety of spacecraft equipped with specific instruments for various scientific and technological missions. These include communications satellites like Starlink; space stations such as the ISS; scientific satellites like the Hubble; Earth observation satellites from companies like Planet Labs, Umbra, and HawkEye 360; GPS; miniature CubeSats for education and research; and military/defense satellites.

Loading next visibility...
Identifier
40076, 2014-037H
Orbit
SSO
Country
Flag of UKUK
Related business
Manufacturer
SSTL (Astrium)
Mission
Partially operational Civil Technology
Bus & Motor
SSTL-150, AOCS
Mass
157 kg wet, 157 kg dry
Launch date (UTC)
2014-07-08 (12 years ago)
Launch vehicle
SOYUZ-2-1B
Launch site
Tyuratam Missile And Space Complex (TTMTR)
Object type
Payload
Rocket body
Debris
Shape & HBR
Box, 0.5 m
Radar Cross Section
1.500 m², Medium (>0.1 m² and < 1m²)

Expand to show TLE details & history
Last TLE update: 16 hours ago

TLE from 16 hours ago
0 TDS 1
1 40076U 14037H   26103.53508962  .00004386  00000-0  25771-3 0  9998
2 40076  98.3804  89.4043 0008026 119.6851 240.5177 15.12290071638456
Epoch: 2026-04-13T12:50Z
TLE epoch observation values (Epoch: 2026-04-13T12:50:31.743Z)
Latitude
-0°
Longitude
55.04774°
Altitude
535.001 km
Speed
7.594 km/s
True Right ascension
05h 57m 37s
True Declination
0° 00' 00"
Sunlit
Object was in daylight at epoch
Visualization orbit readout
Latitude
Unknown
Longitude
Unknown
Altitude
Unknown
Speed
Unknown
Apparent Right ascension
Unknown
Apparent Declination
Unknown
Sunlit
N/A
Visualization observer readout
Local Sidereal Time
11:07:34
Azimuth
Unknown
Elevation
Unknown
Doppler factor
Unknown
Orbital elements
Apogee altitude
531.78 km
Perigee altitude
520.697 km
Semi-major axis
6,904.375 km
Eccentricity
0.0008
Inclination
98.3804°
RAAN
89.4043°
Arg. of periapsis
119.6851°
True anomaly
240.43768°
Mean anomaly
240.5177°
Eccentric anomaly
240.47768°
Mean motion
3.78318 °/min
Orbital period
95.16 mins
BSTAR
0.00025771
Loading maneuver chart data...
Computing Atmospheric mass density...
Loading historical data...
Loading historical data...
Loading historical data...
Loading historical data...
Loading historical data...
Loading historical data...
Loading historical data...

Documentation

Showing up to 5 results
|